Nerlerit Inaat

KL  EN  DA
ASIAQ
Weather Now GREENLAND SURVEY
Updated [WGT/WGST] Temperature [°C] Wind [m/s] Air pressure [hPa] Relative humidity [%] Precipitation [mm]
Present Wind chill Speed Max
25.02 09:00-22,4-32,04,2 ⇓5,3101043n/a
25.02 08:00-23,1-32,74,0 ⇓5,6101044n/a
25.02 07:00-23,2-33,84,9 ⇓6,0100943n/a
25.02 06:00-24,20,0n/a6,4100947n/a
25.02 05:00-25,80,0n/a57,1100952n/a
25.02 04:00-23,30,0n/an/a100945n/a
25.02 03:00-24,80,0n/a7,3100851n/a
25.02 02:00-26,40,0n/an/a100856n/a
25.02 01:00-27,00,0n/a2,0100856n/a
25.02 00:00-26,30,0n/a3,5100853n/a
24.02 23:00-25,90,0n/a2,5100753n/a
24.02 22:00-27,50,0n/a3,1100856n/a
24.02 21:00-26,50,0n/a3,0100756n/a
24.02 20:00-26,10,0n/a3,7100758n/a
24.02 19:00-26,80,0n/a4,7100763n/a
24.02 18:00-24,70,0n/a3,5100756n/a
24.02 17:00-25,90,0n/a2,2100759n/a
24.02 16:00-24,40,0n/a3,0100658n/a
24.02 15:00-24,70,0n/a20,0100659n/a
24.02 14:00-24,30,0n/a2,8100658n/a
24.02 13:00-27,40,0n/a3,2100669n/a
24.02 12:00-25,40,00,9 ⇗1,9100666n/a
24.02 11:00-22,90,00,6 ⇒1,2100656n/a
24.02 10:00-25,30,01,2 ⇒1,9100658n/a
24.02 09:00-27,3-34,22,0 ⇘3,3100655n/a
Position: (70.75,-22.65)

[Back]